Location: Milton Keynes
(52.0316°N, 0.7531°W)
Time: 20:37:00
(UTC+00:00)

GENESIS II - Pass Details

Date: 28 January 2019
Orbit: 487 x 544 km, 64.5° (Epoch: 18 February)

Event Time Altitude Azimuth Distance (km) Brightness Sun altitude
Rises 06:59:15 0° 218° (SW) 2,619 7.6 -7.9°
Reaches altitude 10° 07:01:24 10° 218° (SW) 1,746 6.7 -7.6°
Maximum altitude 07:05:19 81° 131° (SE) 539 4.4 -7.0°
Drops below altitude 10° 07:09:20 10° 45° (NE) 1,791 7.3 -6.4°
Sets 07:11:33 0° 44° (NE) 2,694 8.2 -6.1°
